Vinemont, AL

1:47 AM CST on February 23, 2017 (GMT -0600)
Cullman

Weather History for K3A1 - November, 2012

Change the Weather History Date:

Wednesday, November 7, 2012

  Actual Average (KHSV) Record (KHSV)
Temperature  
Mean Temperature 46 °F -  
Max Temperature 53 °F 62 °F 81 °F (1924)
Min Temperature 39 °F 40 °F 25 °F (1993)
Degree Days  
Heating Degree Days 19    
Moisture  
Dew Point 41 °F    
Average Humidity 89    
Maximum Humidity 99    
Minimum Humidity 60    
Precipitation  
Precipitation 0.18 in - - ()
Sea Level Pressure  
Sea Level Pressure 30.02 in    
Wind  
Wind Speed 4 mph (NW)    
Max Wind Speed 10 mph    
Max Gust Speed 17 mph    
Visibility 8 miles    
Events Rain    
Averages and records for this station are not official NWS values.
T = Trace of Precipitation, MM = Missing Value Source: NWS Daily Summary

Daily Weather History Graph

Daily Weather History Graph

Search for Another Location

Airport or City:

Trip Planner

Search our weather history database for the weather conditions in past years. The results will help you decide how hot, cold, wet, or windy it might be!

Date:

Astronomy

Nov. 07, 2012 Rise Set
Actual Time 6:13 AM CST 4:48 PM CST
Civil Twilight 5:47 AM CST 5:14 PM CST
Nautical Twilight 5:17 AM CST 5:44 PM CST
Astronomical Twilight 4:47 AM CST 6:14 PM CST
Moon No Moon Rise 12:41 PM CST (11/7)
Length of Visible Light 11h 27m
Length of Day
10h 35m
Last Quarter, 43% of the Moon is Illuminated
Nov 7
Last Quarter
Nov 13
New
Nov 20
First Quarter
Nov 28
Full
Dec 6
Last Quarter

Hourly Weather History & Observations

Time (CST) Temp. Windchill Dew Point Humidity Pressure Visibility Wind Dir Wind Speed Gust Speed Precip Events Conditions
12:15 AM 46.4 °F 43.5 °F 44.4 °F 93% 29.97 in 7.0 mi NW 5.8 mph - N/A   Light Drizzle
12:35 AM 45.9 °F 44.6 °F 44.2 °F 94% 29.97 in 7.0 mi WNW 3.5 mph - N/A Rain Light Rain
12:55 AM 45.7 °F 43.4 °F 44.2 °F 95% 29.97 in 5.0 mi NW 4.6 mph - N/A Rain Light Rain
1:15 AM 45.5 °F - 44.2 °F 95% 29.96 in 7.0 mi Calm Calm - N/A   Overcast
1:35 AM 45.1 °F - 44.1 °F 96% 29.95 in 7.0 mi Calm Calm - N/A   Mostly Cloudy
1:55 AM 43.2 °F - 42.6 °F 98% 29.95 in 2.5 mi Calm Calm - N/A   Scattered Clouds
2:15 AM 41.7 °F - 41.5 °F 99% 29.95 in 1.5 mi Calm Calm - N/A   Mist
2:55 AM 43.0 °F - 41.9 °F 96% 29.95 in 7.0 mi Calm Calm - N/A   Mostly Cloudy
3:15 AM 42.8 °F 41.1 °F 41.4 °F 95% 29.94 in 7.0 mi West 3.5 mph - N/A   Scattered Clouds
3:35 AM 42.8 °F 41.1 °F 41.4 °F 95% 29.95 in 7.0 mi West 3.5 mph - N/A   Scattered Clouds
3:55 AM 42.8 °F 40.1 °F 41.5 °F 95% 29.95 in 7.0 mi West 4.6 mph - N/A   Mostly Cloudy
4:15 AM 42.8 °F 41.1 °F 41.2 °F 94% 29.95 in 7.0 mi WNW 3.5 mph - N/A   Mostly Cloudy
4:35 AM 42.1 °F 39.2 °F 40.6 °F 95% 29.96 in 7.0 mi WNW 4.6 mph - N/A   Scattered Clouds
4:55 AM 42.3 °F 39.4 °F 40.8 °F 95% 29.96 in 7.0 mi West 4.6 mph - N/A   Mostly Cloudy
5:15 AM 42.6 °F 39.9 °F 41.0 °F 94% 29.96 in 7.0 mi WNW 4.6 mph - N/A   Overcast
5:35 AM 42.1 °F - 40.6 °F 95% 29.96 in 7.0 mi Calm Calm - N/A   Mostly Cloudy
5:55 AM 41.4 °F 39.4 °F 40.1 °F 95% 29.96 in 7.0 mi WNW 3.5 mph - N/A   Mostly Cloudy
6:15 AM 41.0 °F - 39.9 °F 96% 29.96 in 5.0 mi Calm Calm - N/A   Mostly Cloudy
6:35 AM 40.3 °F - 39.6 °F 97% 29.97 in 4.0 mi Calm Calm - N/A   Scattered Clouds
6:55 AM 40.6 °F - 39.7 °F 97% 29.98 in 4.0 mi Calm Calm - N/A   Clear
7:15 AM 41.7 °F 39.8 °F 40.3 °F 95% 29.99 in 5.0 mi NW 3.5 mph - N/A   Clear
7:35 AM 43.2 °F 41.5 °F 41.0 °F 92% 29.99 in 5.0 mi NW 3.5 mph - N/A   Clear
7:55 AM 45.0 °F 41.2 °F 41.5 °F 88% 29.99 in 7.0 mi NW 6.9 mph - N/A   Scattered Clouds
8:15 AM 46.2 °F 43.3 °F 41.9 °F 85% 29.99 in 10.0 mi NW 5.8 mph - N/A   Mostly Cloudy
8:35 AM 46.4 °F 43.5 °F 41.5 °F 83% 29.99 in 10.0 mi NW 5.8 mph - N/A   Mostly Cloudy
8:55 AM 46.9 °F - 41.5 °F 81% 30.00 in 10.0 mi NW 5.8 mph - N/A   Mostly Cloudy
9:15 AM 47.1 °F - 41.2 °F 80% 30.00 in 10.0 mi WNW 5.8 mph - N/A   Scattered Clouds
9:35 AM 48.9 °F - 41.4 °F 75% 29.99 in 10.0 mi NNW 8.1 mph - N/A   Scattered Clouds
9:55 AM 49.8 °F - 40.8 °F 71% 29.99 in 10.0 mi WNW 8.1 mph - N/A   Scattered Clouds
10:15 AM 50.4 °F - 40.5 °F 69% 29.99 in 10.0 mi West 5.8 mph - N/A   Mostly Cloudy
10:35 AM 51.3 °F - 40.6 °F 67% 29.98 in 10.0 mi WNW 9.2 mph - N/A   Mostly Cloudy
10:55 AM 51.4 °F - 40.5 °F 66% 29.98 in 10.0 mi WNW 5.8 mph - N/A   Mostly Cloudy
11:15 AM 52.7 °F - 40.5 °F 63% 29.97 in 10.0 mi NNW 4.6 mph - N/A   Mostly Cloudy
11:35 AM 52.9 °F - 40.1 °F 62% 29.96 in 10.0 mi NNW 6.9 mph - N/A   Scattered Clouds
11:55 AM 53.1 °F - 39.4 °F 60% 29.95 in 10.0 mi NW 5.8 mph - N/A   Mostly Cloudy
12:15 PM 50.4 °F - 39.2 °F 66% 29.95 in 10.0 mi NW 4.6 mph - N/A Rain Light Rain
12:35 PM 49.5 °F - 41.4 °F 74% 29.95 in 10.0 mi Calm Calm - N/A   Light Drizzle
12:55 PM 50.4 °F - 41.7 °F 72% 29.95 in 10.0 mi Calm Calm - N/A   Mostly Cloudy
1:15 PM 48.9 °F - 40.8 °F 74% 29.97 in 3.0 mi North 10.4 mph 17.3 mph 0.09 in Rain Heavy Rain
1:35 PM 43.0 °F 41.3 °F 39.7 °F 88% 29.97 in 5.0 mi NE 3.5 mph - 0.17 in Rain Light Rain
1:55 PM 43.3 °F - 41.2 °F 92% 29.98 in 10.0 mi Calm Calm - 0.18 in Rain Light Rain
2:15 PM 43.7 °F 38.6 °F 41.2 °F 91% 29.98 in 10.0 mi NNW 9.2 mph - N/A   Mostly Cloudy
2:35 PM 43.9 °F 39.9 °F 41.2 °F 90% 29.99 in 10.0 mi NNW 6.9 mph - N/A Rain Rain
2:55 PM 44.1 °F 39.5 °F 41.4 °F 90% 30.00 in 10.0 mi NNW 8.1 mph 17.3 mph N/A   Scattered Clouds
3:15 PM 44.1 °F 40.1 °F 40.8 °F 88% 30.00 in 10.0 mi NNW 6.9 mph - N/A   Scattered Clouds
3:35 PM 44.2 °F 41.0 °F 40.6 °F 87% 30.01 in 10.0 mi NNW 5.8 mph - N/A   Scattered Clouds
3:55 PM 43.9 °F 39.3 °F 41.0 °F 90% 30.02 in 10.0 mi NNW 8.1 mph 16.1 mph N/A   Light Drizzle
4:15 PM 43.5 °F 41.9 °F 41.0 °F 91% 30.02 in 10.0 mi NNW 3.5 mph - N/A   Scattered Clouds
4:35 PM 43.2 °F 40.5 °F 40.8 °F 91% 30.04 in 10.0 mi NNW 4.6 mph - N/A   Clear
4:55 PM 42.6 °F 40.9 °F 40.6 °F 93% 30.05 in 10.0 mi North 3.5 mph - N/A   Clear
5:15 PM 42.1 °F 39.2 °F 40.5 °F 94% 30.05 in 10.0 mi NW 4.6 mph - N/A   Scattered Clouds
5:35 PM 42.3 °F 40.5 °F 40.8 °F 95% 30.06 in 10.0 mi NW 3.5 mph - N/A   Mostly Cloudy
5:55 PM 42.1 °F 39.2 °F 40.6 °F 95% 30.07 in 10.0 mi NNW 4.6 mph - N/A   Scattered Clouds
6:15 PM 41.7 °F 38.8 °F 40.1 °F 94% 30.08 in 10.0 mi NNW 4.6 mph - N/A   Clear
6:35 PM 41.5 °F 39.6 °F 40.1 °F 95% 30.08 in 10.0 mi North 3.5 mph - N/A   Clear
6:55 PM 41.4 °F 38.4 °F 40.1 °F 95% 30.09 in 10.0 mi NNW 4.6 mph - N/A   Clear
7:15 PM 41.0 °F 37.1 °F 39.7 °F 95% 30.09 in 10.0 mi NNW 5.8 mph - N/A   Clear
7:35 PM 40.6 °F 36.7 °F 39.7 °F 97% 30.10 in 7.0 mi NNW 5.8 mph - N/A   Clear
7:55 PM 40.6 °F - 39.7 °F 97% 30.11 in 10.0 mi Calm Calm - N/A   Clear
8:15 PM 40.3 °F - 39.4 °F 97% 30.12 in 7.0 mi Calm Calm - N/A   Clear
8:35 PM 39.4 °F 37.2 °F 38.7 °F 97% 30.13 in 5.0 mi North 3.5 mph - N/A   Clear
8:55 PM 39.6 °F 37.4 °F 39.2 °F 99% 30.13 in 7.0 mi NNW 3.5 mph - N/A   Clear
9:15 PM 39.9 °F 37.8 °F 39.2 °F 97% 30.13 in 10.0 mi North 3.5 mph - N/A   Clear
9:35 PM 39.7 °F 37.6 °F 39.0 °F 97% 30.13 in 7.0 mi NNW 3.5 mph - N/A   Clear
9:55 PM 40.1 °F - 39.2 °F 97% 30.13 in 10.0 mi Calm Calm - N/A   Scattered Clouds
10:15 PM 40.1 °F 38.0 °F 39.0 °F 96% 30.13 in 7.0 mi NNW 3.5 mph - N/A   Scattered Clouds
10:35 PM 40.1 °F 38.0 °F 39.0 °F 96% 30.13 in 7.0 mi NNW 3.5 mph - N/A   Mostly Cloudy
10:55 PM 40.5 °F - 39.2 °F 95% 30.13 in 10.0 mi Calm Calm - N/A   Overcast
11:15 PM 40.3 °F - 39.0 °F 95% 30.14 in 7.0 mi Calm Calm - N/A   Overcast
11:35 PM 40.1 °F - 38.8 °F 95% 30.14 in 7.0 mi Calm Calm - N/A   Overcast
11:55 PM 40.1 °F - 39.0 °F 96% 30.14 in 5.0 mi Calm Calm - N/A   Overcast